STARLINK-32037, 60283

Orbit data source: Space-Track

STARLINK-32037, 60283 is a payload satellite owned by SpaceX/Seattle (US) in LEO that was launched on Sun, 28 Jul 2024 UTC via an FALCON 9 launch vehicle from the Air Force Eastern Test Range (AFETR). Payload-class satellites include a variety of spacecraft equipped with specific instruments for various scientific and technological missions. These include communications satellites like Starlink; space stations such as the ISS; scientific satellites like the Hubble; Earth observation satellites from companies like Planet Labs, Umbra, and HawkEye 360; GPS; miniature CubeSats for education and research; and military/defense satellites.

Loading next visibility...
Identifier
60283, 2024-132F
Orbit
LEO
Last TLE update
7 hours ago
Origin
Manufacturer
SpaceX/Seattle
Mission
Operational spacecraft
Bus & Motor
STARLINK V2M, Unknown motor
Mass
730 kg wet, ~700 kg dry
Launch date (UTC)
2024-07-28 (11 months ago)
Launch vehicle
FALCON 9
Launch site
Air Force Eastern Test Range (AFETR)
Object type
Payload
Rocket body
Debris
Shape & HBR
Unknown
Radar Cross Section
Large (>1 m²)

Expand to show TLE details & history

TLE from 7 hours ago
0 STARLINK-32037
1 60283U 24132F   25182.12716415  .00000972  00000-0  44936-4 0  9994
2 60283  53.1589 141.0126 0001259  94.1926 265.9219 15.30201776 53032
Epoch: 2025-07-01T03:03Z
TLE epoch observation values (Epoch: 2025-07-01T03:03:06.982Z)
Latitude
Longitude
175.80643°
Altitude
476.171 km
Speed
7.629 km/s
True Right ascension
09h 24m 03s
True Declination
0° 00' 00"
Sunlit
Object was in daylight at epoch
Visualization orbit readout
Latitude
45.02103°
Longitude
-137.24714°
Altitude
479.174 km
Speed
7.632 km/s
Apparent Right ascension
10h 52m 19s
Apparent Declination
4° 53' 09"
Sunlit
Object is in daylight
Visualization observer readout
Local Sidereal Time
21:13:46
Azimuth
327.276° NNW
Elevation
-39.789°
Doppler factor
1
Orbital elements
Apogee altitude
476.329 km
Perigee altitude
474.604 km
Semi-major axis
6,853.603 km
Eccentricity
0.00013
Inclination
53.1589°
RAAN
141.0126°
Arg. of periapsis
94.1926°
True anomaly
Unknown
Mean anomaly
265.9219°
Eccentric anomaly
Unknown
Mean motion
3.82529 °/min
Orbital period
94.11 mins
BSTAR
0.000044936
Loading maneuver chart data...
Loading SW <> Apogee altitude chart data...
Loading historical data...
Loading historical data...
Loading historical data...
Loading historical data...
Loading historical data...
Loading historical data...
Loading historical data...

STARLINK-32037 Visibility forecast

Observer location: undefined°, undefined°

Span
Click to sort rows by Start time (UTC) header in descending order
Start Az.
Max El. time (UTC)
Max El. Az.
Max El.
End time (UTC)
End Az.
6 mins2025-07-01 23:35:27.418Z212.057° SW2025-07-01 23:38:27.418Z159.74° S37.606°2025-07-01 23:41:27.418Z62.619° ENE
4 mins2025-07-02 01:15:27.418Z298.288° NW2025-07-02 01:16:27.418Z320.858° NNW21.559°2025-07-02 01:19:27.418Z24.014° NE
5 mins2025-07-02 06:11:27.418Z327.526° NNW2025-07-02 06:13:27.418Z16.056° NNE35.058°2025-07-02 06:16:27.418Z104.862° ESE
|